Location: Newark
(49.5647°N, 8.2922°E)
Time: 13:34:19
(UTC+00:00)

Envisat - Visible Passes

Search period start: 27 January 2020 00:00
Search period end: 06 February 2020 00:00
Orbit: 764 x 766 km, 98.1° (Epoch: 27 January)

Date Brightness Start Highest point End Pass type
(mag) Time Alt. Az. Time Alt. Az. Time Alt. Az.
27 Jan 5.9 04:59:25 10° NE 05:02:54 18° E 05:06:23 10° SE visible
27 Jan 4.7 17:56:50 10° SSW 18:01:27 35° W 18:06:06 10° NNW visible
28 Jan 3.7 06:00:37 10° NNE 06:05:40 59° E 06:10:40 10° S visible
28 Jan 3.3 17:19:27 10° S 17:24:30 71° WSW 17:29:36 10° NNW visible
28 Jan 6.4 19:03:40 10° W 19:04:29 10° W 19:05:18 10° WNW visible
29 Jan 5.1 05:24:13 10° NNE 05:28:40 29° E 05:33:04 10° SSE visible
29 Jan 3.1 16:42:47 10° SSE 16:47:46 59° ENE 16:52:46 10° N visible
29 Jan 5.6 18:23:18 10° SW 18:27:10 22° W 18:31:05 10° NW visible
30 Jan 6.2 04:48:37 10° NE 04:51:28 15° E 04:54:18 10° ESE visible
30 Jan 3.0 06:26:04 10° NNE 06:31:11 85° WNW 06:36:16 10° SSW visible
30 Jan 4.3 17:45:17 10° S 17:50:06 43° W 17:54:56 10° NNW visible
31 Jan 4.1 05:49:23 10° NNE 05:54:19 48° E 05:59:13 10° S visible
31 Jan 3.1 17:08:07 10° SSE 17:13:12 86° WSW 17:18:19 10° NNW visible
31 Jan 6.2 18:50:38 10° WSW 18:53:00 13° W 18:55:23 10° WNW visible
01 Feb 5.5 05:13:09 10° NE 05:17:16 24° E 05:21:21 10° SE visible
01 Feb 5.3 18:11:31 10° SSW 18:15:46 27° W 18:20:03 10° NW visible
02 Feb 6.3 04:38:09 10° ENE 04:40:00 12° E 04:41:51 10° ESE visible
02 Feb 3.2 06:14:46 10° NNE 06:19:53 79° ESE 06:24:58 10° S visible
02 Feb 3.9 17:33:48 10° S 17:38:44 53° W 17:43:44 10° NNW visible
03 Feb 4.6 05:38:12 10° NNE 05:42:58 39° E 05:47:43 10° SSE visible
03 Feb 3.0 16:56:51 10° SSE 17:01:55 78° ENE 17:07:01 10° NNW visible
03 Feb 6.0 18:38:24 10° SW 18:41:33 16° W 18:44:43 10° NW visible
04 Feb 5.8 05:02:10 10° NE 05:05:51 20° E 05:09:31 10° SE visible
04 Feb 4.9 17:59:51 10° SSW 18:04:23 32° W 18:08:57 10° NNW visible
05 Feb 3.6 06:03:30 10° NNE 06:08:34 64° ESE 06:13:36 10° S visible
05 Feb 3.5 17:22:23 10° S 17:27:25 66° WSW 17:32:30 10° NNW visible
